GW5816 Weather Reports


Display with metric or nautical units.
time (UTC)temp
F
wind
direction
speed
MPH
gust
MPH
rain 1hr
in
rain 24hr
in
rain mn
in
humidity
%
barometer
mb
20260906112141 70 269 1.0 2.0 0.00 0.00 0.00 99 1019.0
20260906111641 71 255 0.0 2.0 0.00 0.00 0.00 99 1019.0
20260906111141 71 246 1.0 2.0 0.00 0.00 0.00 99 1019.0
20260906110642 71 256 2.0 3.0 0.00 0.00 0.00 99 1019.0
20260906110142 71 266 1.0 3.0 0.00 0.00 0.00 99 1019.0
20260906105641 71 302 2.0 2.0 0.00 0.00 0.00 99 1019.0
20260906105141 71 281 1.0 3.0 0.00 0.00 0.00 99 1019.0
20260906104641 70 299 3.0 3.0 0.00 0.00 0.00 99 1019.0
20260906104141 70 286 0.0 2.0 0.00 0.00 0.00 99 1019.0
20260906103641 70 287 1.0 2.0 0.00 0.00 0.00 99 1019.0
20260906103141 71 288 1.0 2.0 0.00 0.00 0.00 99 1019.0
20260906102641 70 283 2.0 2.0 0.00 0.00 0.00 99 1019.0
20260906102141 70 303 1.0 2.0 0.00 0.00 0.00 99 1019.0
20260906101641 70 231 1.0 2.0 0.00 0.00 0.00 99 1019.0
20260906101141 70 262 0.0 1.0 0.00 0.00 0.00 99 1019.0
20260906100642 70 266 1.0 1.0 0.00 0.00 0.00 99 1019.0
20260906100141 70 269 0.0 1.0 0.00 0.00 0.00 99 1019.0
20260906095642 70 282 1.0 1.0 0.00 0.00 0.00 99 1019.0
20260906095142 71 291 0.0 1.0 0.00 0.00 0.00 99 1018.0
20260906094642 70 273 2.0 2.0 0.00 0.00 0.00 99 1018.0
20260906094142 70 284 0.0 1.0 0.00 0.00 0.00 99 1018.0
20260906093641 70 281 1.0 1.0 0.00 0.00 0.00 99 1019.0
20260906093141 70 289 1.0 1.0 0.00 0.00 0.00 99 1018.0
20260906092641 70 269 0.0 1.0 0.00 0.00 0.00 99 1018.0
20260906092141 70 284 0.0 1.0 0.00 0.00 0.00 99 1018.0
20260906091643 70 280 1.0 1.0 0.00 0.00 0.00 99 1018.0
20260906091141 70 260 0.0 1.0 0.00 0.00 0.00 99 1018.0
20260906090642 70 284 0.0 0.0 0.00 0.00 0.00 99 1018.0
20260906090141 70 269 0.0 1.0 0.00 0.00 0.00 99 1018.0
20260906085641 70 269 0.0 1.0 0.00 0.00 0.00 99 1018.0
20260906085141 71 269 0.0 1.0 0.00 0.00 0.00 99 1019.0
20260906084642 71 295 2.0 2.0 0.00 0.00 0.00 99 1018.0
20260906084141 71 272 1.0 2.0 0.00 0.00 0.00 99 1018.0
20260906083641 70 266 1.0 1.0 0.00 0.00 0.00 99 1018.0
20260906083141 70 258 0.0 2.0 0.00 0.00 0.00 99 1018.0
20260906082642 70 273 1.0 1.0 0.00 0.00 0.00 99 1018.0
20260906082141 70 278 0.0 1.0 0.00 0.00 0.00 99 1018.0
20260906081641 70 282 1.0 2.0 0.00 0.00 0.00 99 1018.0
20260906081142 70 269 1.0 1.0 0.00 0.00 0.00 99 1018.0
20260906080641 70 269 0.0 1.0 0.00 0.00 0.00 99 1018.0
20260906080141 70 285 1.0 1.0 0.00 0.00 0.00 99 1018.0
20260906075641 71 272 1.0 2.0 0.00 0.00 0.00 99 1018.0
20260906075141 71 269 1.0 2.0 0.00 0.00 0.00 99 1018.0
20260906074641 71 273 1.0 2.0 0.00 0.00 0.00 99 1018.0
20260906074141 71 277 2.0 2.0 0.00 0.00 0.00 99 1018.0
20260906073641 71 272 0.0 2.0 0.00 0.00 0.00 99 1018.0
20260906073141 71 249 0.0 2.0 0.00 0.00 0.00 99 1018.0
20260906072642 71 275 1.0 2.0 0.00 0.00 0.00 99 1018.0
20260906072141 71 234 0.0 1.0 0.00 0.00 0.00 99 1018.0
20260906071641 71 274 1.0 2.0 0.00 0.00 0.00 99 1018.0
20260906071141 71 295 1.0 2.0 0.00 0.00 0.00 99 1018.0
20260906070641 71 269 1.0 2.0 0.00 0.00 0.00 99 1018.0
20260906070141 71 260 1.0 1.0 0.00 0.00 0.00 99 1018.0
20260906065641 71 288 0.0 2.0 0.00 0.00 0.00 99 1018.0
20260906065142 71 306 1.0 1.0 0.00 0.00 0.00 99 1018.0
20260906064641 71 307 1.0 2.0 0.00 0.00 0.00 99 1018.0
20260906064141 71 265 2.0 2.0 0.00 0.00 0.00 99 1018.0
20260906063642 70 269 0.0 2.0 0.00 0.00 0.00 99 1018.0
20260906063142 71 266 1.0 1.0 0.00 0.00 0.00 99 1018.0
20260906062641 71 289 1.0 2.0 0.00 0.00 0.00 99 1018.0
20260906062142 71 255 0.0 1.0 0.00 0.00 0.00 99 1018.0
20260906061641 71 271 2.0 2.0 0.00 0.00 0.00 99 1018.0
20260906061141 71 275 0.0 1.0 0.00 0.00 0.00 99 1018.0
20260906060641 71 283 0.0 1.0 0.00 0.00 0.00 99 1019.0
20260906060141 71 284 0.0 2.0 0.00 0.00 0.00 99 1019.0
20260906055644 71 274 1.0 2.0 0.00 0.00 0.00 99 1019.0
20260906055142 71 273 1.0 2.0 0.00 0.00 0.00 99 1019.0
20260906054641 71 269 0.0 1.0 0.00 0.00 0.00 99 1019.0
20260906054141 71 315 0.0 1.0 0.00 0.00 0.00 99 1019.0
20260906053641 71 279 1.0 2.0 0.00 0.00 0.00 99 1019.0
20260906053141 71 266 2.0 2.0 0.00 0.00 0.00 99 1019.0
20260906052642 71 266 0.0 2.0 0.00 0.00 0.00 99 1019.0
20260906052141 71 272 1.0 2.0 0.00 0.00 0.00 99 1019.0
20260906051642 71 269 0.0 1.0 0.00 0.00 0.00 99 1019.0
20260906051141 71 269 1.0 2.0 0.00 0.00 0.00 99 1019.0
20260906050644 71 272 1.0 2.0 0.00 0.00 0.00 99 1019.0
20260906050141 71 269 0.0 1.0 0.00 0.00 0.00 99 1019.0
20260906045643 71 284 0.0 2.0 0.00 0.00 0.00 99 1019.0
20260906045141 72 271 2.0 2.0 0.00 0.00 0.00 99 1019.0
20260906044641 71 273 2.0 2.0 0.00 0.00 0.00 99 1019.0
20260906044141 71 246 0.0 1.0 0.00 0.00 0.00 99 1019.0
20260906043641 72 279 1.0 2.0 0.00 0.00 0.00 99 1019.0
20260906043141 72 269 2.0 2.0 0.00 0.00 0.00 99 1019.0
20260906042641 72 271 1.0 2.0 0.00 0.00 0.00 99 1019.0
20260906042141 72 266 1.0 3.0 0.00 0.00 0.00 99 1019.0
20260906041642 72 272 1.0 3.0 0.00 0.00 0.00 99 1019.0
20260906041142 72 256 0.0 2.0 0.00 0.00 0.00 99 1019.0
20260906040641 72 271 2.0 3.0 0.00 0.00 0.00 99 1019.0
20260906040141 72 280 1.0 1.0 0.00 0.00 0.00 99 1019.0
20260906035644 72 291 2.0 3.0 0.00 0.00 0.00 99 1019.0
20260906035142 72 228 0.0 2.0 0.00 0.00 0.00 99 1019.0
20260906034641 72 255 0.0 1.0 0.00 0.00 0.00 99 1019.0
20260906034142 72 300 1.0 2.0 0.00 0.00 0.00 99 1019.0
20260906033641 72 289 3.0 3.0 0.00 0.00 0.00 99 1019.0
20260906033142 72 290 1.0 1.0 0.00 0.00 0.00 99 1019.0
20260906032641 72 298 2.0 3.0 0.00 0.00 0.00 99 1019.0
20260906032141 72 281 0.0 2.0 0.00 0.00 0.00 99 1019.0
20260906031641 72 278 2.0 2.0 0.00 0.00 0.00 99 1020.0
20260906031141 72 267 1.0 1.0 0.00 0.00 0.00 99 1020.0
20260906030641 72 297 0.0 1.0 0.00 0.00 0.00 99 1020.0
20260906030141 72 272 2.0 2.0 0.00 0.00 0.00 99 1020.0
20260906025641 72 275 0.0 1.0 0.00 0.00 0.00 99 1020.0
20260906025141 72 287 1.0 2.0 0.00 0.00 0.00 99 1021.0
20260906024641 72 288 2.0 2.0 0.00 0.00 0.00 99 1020.0
20260906024141 72 253 1.0 1.0 0.00 0.00 0.00 99 1021.0
20260906023641 72 283 0.0 0.0 0.00 0.00 0.00 99 1020.0
20260906023141 72 278 1.0 1.0 0.00 0.00 0.00 99 1020.0
20260906022641 72 292 1.0 2.0 0.00 0.00 0.00 99 1020.0
20260906022141 72 282 2.0 2.0 0.00 0.00 0.00 99 1020.0
20260906021642 72 295 2.0 2.0 0.00 0.00 0.00 99 1020.0
20260906021141 72 266 1.0 1.0 0.00 0.00 0.00 99 1020.0
20260906020641 72 269 0.0 0.0 0.00 0.00 0.00 99 1020.0
20260906020141 72 229 0.0 2.0 0.00 0.00 0.00 99 1020.0
20260906015641 72 279 2.0 2.0 0.00 0.00 0.00 99 1020.0
20260906015141 72 281 1.0 1.0 0.00 0.00 0.00 99 1020.0
20260906014641 72 263 1.0 1.0 0.00 0.00 0.00 99 1020.0
20260906014143 73 283 2.0 2.0 0.00 0.00 0.00 99 1020.0
20260906013641 73 268 1.0 2.0 0.00 0.00 0.00 99 1020.0
20260906013141 72 266 1.0 1.0 0.00 0.00 0.00 99 1020.0
20260906012641 73 263 1.0 2.0 0.00 0.00 0.00 99 1020.0
20260906012142 72 210 1.0 2.0 0.00 0.00 0.00 99 1020.0
20260906011641 72 243 0.0 2.0 0.00 0.00 0.00 99 1020.0
20260906011142 72 255 1.0 1.0 0.00 0.00 0.00 99 1020.0
20260906010642 72 248 0.0 1.0 0.00 0.00 0.00 99 1020.0
20260906010141 72 287 0.0 1.0 0.00 0.00 0.00 99 1020.0
20260906005641 72 245 1.0 2.0 0.00 0.00 0.00 99 1020.0
20260906005141 72 246 0.0 2.0 0.00 0.00 0.00 99 1020.0
20260906004641 72 286 3.0 3.0 0.00 0.00 0.00 99 1020.0
20260906004141 72 274 2.0 3.0 0.00 0.00 0.00 99 1020.0
20260906003641 73 241 1.0 3.0 0.00 0.00 0.00 99 1020.0
20260906003141 73 242 1.0 2.0 0.00 0.00 0.00 99 1019.0
20260906002641 73 262 3.0 3.0 0.00 0.00 0.00 99 1019.0
20260906002141 73 248 3.0 4.0 0.00 0.00 0.00 99 1019.0
20260906001641 74 269 1.0 1.0 0.00 0.00 0.00 99 1019.0
20260906001141 73 264 1.0 1.0 0.00 0.00 0.00 99 1019.0
20260906000641 73 269 1.0 2.0 0.00 0.00 0.00 99 1018.0
20260906000142 73 277 1.0 2.0 0.00 0.00 0.00 99 1018.0
20260905235641 73 243 1.0 2.0 0.00 0.00 0.00 99 1018.0
20260905235141 73 269 0.0 4.0 0.00 0.00 0.00 99 1017.0
20260905234641 74 281 2.0 2.0 0.00 0.00 0.00 99 1017.0
20260905234142 74 282 2.0 2.0 0.00 0.00 0.00 99 1017.0
20260905233642 74 284 1.0 2.0 0.00 0.00 0.00 99 1017.0
20260905233141 73 275 1.0 1.0 0.00 0.00 0.00 99 1017.0
20260905232642 73 290 0.0 1.0 0.00 0.00 0.00 99 1018.0
20260905232141 73 271 2.0 3.0 0.00 0.00 0.00 99 1018.0
20260905231641 73 261 2.0 2.0 0.00 0.00 0.00 99 1018.0
20260905231141 73 279 3.0 3.0 0.00 0.00 0.00 99 1018.0
20260905230641 73 283 3.0 3.0 0.00 0.00 0.00 99 1018.0
20260905230141 73 288 2.0 3.0 0.00 0.00 0.00 99 1018.0
20260905225641 73 272 2.0 2.0 0.00 0.00 0.00 99 1018.0
20260905225141 73 141 3.0 5.0 0.00 0.00 0.00 98 1019.0
20260905224641 73 292 0.0 3.0 0.00 0.00 0.00 98 1019.0
20260905224141 73 295 3.0 6.0 0.00 0.00 0.00 98 1020.0
20260905223641 73 100 3.0 3.0 0.00 0.00 0.00 97 1021.0
20260905223142 73 77 2.0 4.0 0.00 0.00 0.00 97 1021.0
20260905222642 73 175 1.0 3.0 0.00 0.00 0.00 96 1021.0
20260905222141 73 276 3.0 6.0 0.00 0.00 0.00 95 1021.0
20260905221642 74 295 6.0 18.0 0.00 0.00 0.00 91 1020.0
20260905221143 80 266 3.0 16.0 0.00 0.00 0.00 79 1020.0
20260905220641 82 282 4.0 17.0 0.00 0.00 0.00 73 1018.0
20260905220141 86 354 3.0 13.0 0.00 0.00 0.00 64 1018.0
20260905215642 89 287 7.0 7.0 0.00 0.00 0.00 61 1017.0
20260905215142 89 300 3.0 5.0 0.00 0.00 0.00 61 1016.0
20260905214641 89 280 2.0 7.0 0.00 0.00 0.00 60 1016.0
20260905214142 89 279 3.0 5.0 0.00 0.00 0.00 61 1016.0
20260905213641 90 284 3.0 6.0 0.00 0.00 0.00 59 1016.0
20260905213141 93 299 4.0 6.0 0.00 0.00 0.00 56 1016.0
20260905212641 93 288 3.0 4.0 0.00 0.00 0.00 57 1016.0
20260905212141 92 284 3.0 3.0 0.00 0.00 0.00 59 1016.0
20260905211643 91 291 3.0 4.0 0.00 0.00 0.00 61 1016.0
20260905211141 92 272 3.0 4.0 0.00 0.00 0.00 60 1016.0
20260905210641 93 291 3.0 5.0 0.00 0.00 0.00 57 1016.0
20260905210141 93 290 3.0 4.0 0.00 0.00 0.00 58 1016.0
20260905205642 93 296 3.0 4.0 0.00 0.00 0.00 57 1016.0
20260905205141 93 296 2.0 3.0 0.00 0.00 0.00 55 1016.0
20260905204642 94 278 3.0 4.0 0.00 0.00 0.00 55 1016.0
20260905204141 93 293 4.0 4.0 0.00 0.00 0.00 54 1016.0
20260905203641 93 291 3.0 6.0 0.00 0.00 0.00 53 1016.0
20260905203141 94 277 3.0 4.0 0.00 0.00 0.00 53 1016.0
20260905202641 95 289 3.0 4.0 0.00 0.00 0.00 52 1016.0
20260905202141 96 265 2.0 3.0 0.00 0.00 0.00 50 1016.0
20260905201642 96 272 3.0 5.0 0.00 0.00 0.00 49 1016.0
20260905201141 98 273 3.0 5.0 0.00 0.00 0.00 48 1016.0
20260905200641 99 272 3.0 3.0 0.00 0.00 0.00 45 1016.0
20260905200141 96 255 1.0 2.0 0.00 0.00 0.00 46 1016.0
20260905195642 98 276 2.0 4.0 0.00 0.00 0.00 46 1016.0
20260905195141 96 255 2.0 3.0 0.00 0.00 0.00 49 1016.0
20260905194641 97 286 2.0 3.0 0.00 0.00 0.00 46 1017.0
20260905194142 98 277 3.0 4.0 0.00 0.00 0.00 47 1016.0
20260905193642 96 287 3.0 3.0 0.00 0.00 0.00 46 1017.0
20260905193142 94 244 1.0 4.0 0.00 0.00 0.00 46 1017.0
20260905192642 98 283 3.0 4.0 0.00 0.00 0.00 47 1017.0
20260905192141 100 260 2.0 3.0 0.00 0.00 0.00 44 1017.0
20260905191641 98 258 2.0 5.0 0.00 0.00 0.00 47 1016.0
20260905191141 100 196 2.0 3.0 0.00 0.00 0.00 41 1016.0
20260905190641 98 269 0.0 5.0 0.00 0.00 0.00 44 1017.0
20260905190141 102 233 2.0 3.0 0.00 0.00 0.00 40 1017.0
20260905185642 101 276 3.0 3.0 0.00 0.00 0.00 43 1017.0
20260905185141 99 283 2.0 3.0 0.00 0.00 0.00 43 1017.0
20260905184641 99 275 3.0 5.0 0.00 0.00 0.00 45 1017.0
20260905184141 99 305 3.0 3.0 0.00 0.00 0.00 43 1017.0
20260905183641 98 272 2.0 4.0 0.00 0.00 0.00 45 1017.0
20260905183141 97 277 3.0 6.0 0.00 0.00 0.00 47 1017.0
20260905182642 96 269 1.0 3.0 0.00 0.00 0.00 48 1017.0
20260905182141 94 284 2.0 5.0 0.00 0.00 0.00 50 1018.0
20260905181641 96 295 5.0 5.0 0.00 0.00 0.00 50 1017.0
20260905181141 96 287 5.0 6.0 0.00 0.00 0.00 50 1018.0
20260905180641 95 292 3.0 4.0 0.00 0.00 0.00 49 1018.0
20260905180141 94 286 5.0 5.0 0.00 0.00 0.00 51 1018.0
20260905175642 96 266 2.0 5.0 0.00 0.00 0.00 52 1018.0
20260905175141 95 294 4.0 6.0 0.00 0.00 0.00 50 1018.0
20260905174641 96 274 3.0 5.0 0.00 0.00 0.00 50 1018.0
20260905174141 97 239 2.0 3.0 0.00 0.00 0.00 45 1018.0
20260905173642 98 235 2.0 4.0 0.00 0.00 0.00 47 1018.0
20260905173141 95 336 1.0 5.0 0.00 0.00 0.00 49 1018.0
20260905172640 96 296 4.0 6.0 0.00 0.00 0.00 49 1018.0
20260905172142 96 125 0.0 5.0 0.00 0.00 0.00 49 1018.0
20260905171641 95 283 5.0 5.0 0.00 0.00 0.00 51 1018.0
20260905171142 95 255 3.0 5.0 0.00 0.00 0.00 54 1019.0
20260905170641 93 221 3.0 4.0 0.00 0.00 0.00 54 1018.0
20260905170141 94 258 0.0 4.0 0.00 0.00 0.00 52 1018.0
20260905165641 93 289 4.0 4.0 0.00 0.00 0.00 55 1019.0
20260905165141 95 256 1.0 2.0 0.00 0.00 0.00 51 1019.0
20260905164641 95 73 0.0 3.0 0.00 0.00 0.00 51 1019.0
20260905164141 94 350 1.0 4.0 0.00 0.00 0.00 53 1019.0
20260905163642 94 218 6.0 6.0 0.00 0.00 0.00 53 1019.0
20260905163141 92 272 3.0 5.0 0.00 0.00 0.00 56 1019.0
20260905162641 93 266 2.0 5.0 0.00 0.00 0.00 55 1019.0
20260905162143 92 295 5.0 6.0 0.00 0.00 0.00 57 1019.0
20260905161642 93 273 1.0 4.0 0.00 0.00 0.00 54 1019.0
20260905161141 92 294 3.0 5.0 0.00 0.00 0.00 56 1019.0
20260905160642 91 355 1.0 5.0 0.00 0.00 0.00 55 1019.0
20260905160142 92 283 2.0 5.0 0.00 0.00 0.00 55 1019.0
20260905155641 91 79 0.0 5.0 0.00 0.00 0.00 55 1019.0
20260905155141 92 284 3.0 4.0 0.00 0.00 0.00 56 1020.0
20260905154643 93 82 2.0 6.0 0.00 0.00 0.00 53 1019.0
20260905154143 92 271 2.0 3.0 0.00 0.00 0.00 57 1019.0
20260905153641 90 267 2.0 4.0 0.00 0.00 0.00 58 1020.0
20260905153141 91 280 3.0 5.0 0.00 0.00 0.00 58 1020.0
20260905152641 92 50 0.0 5.0 0.00 0.00 0.00 55 1020.0
20260905152142 91 233 3.0 5.0 0.00 0.00 0.00 57 1020.0
20260905151642 89 280 1.0 3.0 0.00 0.00 0.00 58 1021.0
20260905151141 89 280 1.0 3.0 0.00 0.00 0.00 58 1021.0
20260905150642 89 280 1.0 3.0 0.00 0.00 0.00 58 1021.0
20260905150141 89 280 1.0 3.0 0.00 0.00 0.00 58 1021.0
20260905145641 89 280 1.0 3.0 0.00 0.00 0.00 58 1021.0
20260905145141 89 48 2.0 3.0 0.00 0.00 0.00 61 1020.0
20260905144642 91 67 3.0 3.0 0.00 0.00 0.00 58 1020.0
20260905144141 89 291 3.0 5.0 0.00 0.00 0.00 62 1021.0
20260905143641 88 286 2.0 3.0 0.00 0.00 0.00 63 1020.0
20260905143141 87 241 2.0 3.0 0.00 0.00 0.00 65 1021.0
20260905142643 88 269 2.0 3.0 0.00 0.00 0.00 65 1021.0
20260905142141 87 284 3.0 3.0 0.00 0.00 0.00 67 1021.0
20260905141642 87 283 1.0 3.0 0.00 0.00 0.00 67 1021.0
20260905141141 86 237 2.0 3.0 0.00 0.00 0.00 67 1021.0
20260905140641 87 268 2.0 2.0 0.00 0.00 0.00 69 1021.0
20260905140141 87 91 1.0 2.0 0.00 0.00 0.00 66 1021.0
20260905135641 86 272 0.0 2.0 0.00 0.00 0.00 68 1021.0
20260905135142 86 277 0.0 2.0 0.00 0.00 0.00 70 1021.0
20260905134641 84 278 2.0 3.0 0.00 0.00 0.00 72 1021.0
20260905134141 84 282 4.0 4.0 0.00 0.00 0.00 78 1021.0
20260905133641 84 281 2.0 2.0 0.00 0.00 0.00 76 1021.0
20260905133141 83 282 2.0 3.0 0.00 0.00 0.00 82 1021.0
20260905132641 82 284 3.0 3.0 0.00 0.00 0.00 82 1021.0
20260905132141 81 279 2.0 3.0 0.00 0.00 0.00 85 1021.0
20260905131641 81 290 2.0 2.0 0.00 0.00 0.00 86 1021.0
20260905131141 81 292 2.0 2.0 0.00 0.00 0.00 85 1021.0
20260905130642 80 294 2.0 2.0 0.00 0.00 0.00 86 1021.0
20260905130142 80 275 1.0 2.0 0.00 0.00 0.00 87 1021.0
20260905125642 79 288 2.0 2.0 0.00 0.00 0.00 89 1021.0
20260905125142 78 284 2.0 2.0 0.00 0.00 0.00 90 1021.0
20260905124641 77 265 2.0 2.0 0.00 0.00 0.00 94 1021.0
20260905124141 75 276 2.0 3.0 0.00 0.00 0.00 99 1021.0
20260905123641 74 269 2.0 2.0 0.00 0.00 0.00 99 1022.0
20260905123141 73 278 2.0 2.0 0.00 0.00 0.00 99 1021.0
20260905122641 73 235 0.0 3.0 0.00 0.00 0.00 99 1021.0
20260905122141 72 284 1.0 2.0 0.00 0.00 0.00 99 1021.0
20260905121642 72 280 1.0 2.0 0.00 0.00 0.00 99 1021.0
20260905121141 72 257 0.0 1.0 0.00 0.00 0.00 99 1021.0
20260905120641 72 269 0.0 0.0 0.00 0.00 0.00 99 1021.0
20260905120141 72 269 1.0 1.0 0.00 0.00 0.00 99 1021.0
20260905115641 71 242 0.0 1.0 0.00 0.00 0.00 99 1021.0
20260905115141 71 266 0.0 1.0 0.00 0.00 0.00 99 1021.0
20260905114642 71 284 0.0 1.0 0.00 0.00 0.00 99 1021.0
20260905114142 71 269 0.0 1.0 0.00 0.00 0.00 99 1021.0
20260905113641 71 280 0.0 1.0 0.00 0.00 0.00 99 1021.0
20260905113141 71 294 1.0 2.0 0.00 0.00 0.00 99 1021.0
20260905112641 71 265 1.0 1.0 0.00 0.00 0.00 99 1021.0